[[{"header":{"parameterUnit":"m.s-1","parameterCategory":1,"la1":30.2991,"la2":30.254,"lo1":-89.0895,"lo2":-89.0444,"dy":0.0017,"dx":0.0017,"nx":28,"ny":28,"refTime":"2023-09-21T21:00:00:Z","depth":0,"parameterNumber":2,"parameterNumberName":"U-component_of_WINDS"},"data":[0,0,0,0,0,0,0,0,0,0,0,0,0,0,0,0,0,0,0,0,0,0,0,0,0,0,0,0,0,0,0,0,0,0,0,0,0,0,0,0,0,0,0,0,0,0,0,0,0,0,0,0,0,0,0,0,0,0,-2.8516,-2.8515,0,-2.8421,-2.842,-2.8419,-2.8294,-2.8292,-2.8289,-2.8287,-2.8192,-2.8191,-2.8191,0,0,0,0,0,0,0,0,0,0,0,0,0,-2.859,-2.8589,-2.8516,-2.8515,-2.8513,-2.8421,-2.842,-2.8419,-2.8294,-2.8291,-2.8289,-2.8287,-2.8192,-2.8192,-2.8191,0,0,0,0,0,0,0,0,0,0,0,0,0,-2.8533,-2.8589,-2.8516,-2.844,-2.8432,-2.8421,-2.842,-2.8418,-2.8294,-2.8291,-2.8288,-2.8285,-2.8192,-2.8192,-2.8191,-2.8247,0,0,-2.8188,-2.8187,0,0,0,0,0,0,0,0,-2.8536,-2.853,-2.8452,-2.8445,-2.8437,-2.8366,-2.8411,-2.8361,-2.8295,-2.8347,-2.8287,-2.8284,-2.8252,-2.8246,-2.8235,-2.8243,-2.8238,-2.8188,-2.8187,-2.8187,-2.8187,0,0,0,0,0,0,0,-2.854,-2.8534,-2.8478,-2.8451,-2.8442,-2.8411,-2.84,-2.8401,-2.8318,-2.8342,-2.8333,-2.8323,-2.8248,-2.8237,-2.8232,-2.8237,-2.8188,-2.8187,-2.8186,-2.8186,-2.8284,-2.8287,0,0,0,0,0,0,-2.8555,-2.8538,-2.8481,-2.8475,-2.848,-2.8412,-2.8399,-2.8392,-2.8318,-2.8304,-2.8326,-2.8318,-2.824,-2.8234,-2.8229,-2.8288,-2.8187,-2.8186,-2.8185,-2.8281,-2.8285,-2.8288,0,0,0,0,0,0,-2.8557,-2.8552,-2.8485,-2.8504,-2.8493,-2.8414,-2.8407,-2.8392,-2.838,-2.8306,-2.829,-2.833,-2.8237,-2.823,-2.8243,-2.8283,-2.8186,-2.8185,-2.8277,-2.8282,-2.8286,-2.8408,0,0,0,0,0,0,-2.856,-2.8553,-2.8573,-2.8505,-2.8493,-2.8501,-2.8409,-2.8392,-2.8379,-2.8367,-2.8305,-2.8292,-2.8234,-2.8245,-2.8242,-2.828,-2.8184,-2.8273,-2.8279,-2.8285,-2.84,-2.8417,-2.843,0,0,0,0,0,-2.8563,-2.8612,-2.8575,-2.8569,-2.8516,-2.8504,-2.8496,-2.8428,-2.8383,-2.8402,-2.8354,-2.8294,-2.828,-2.8247,-2.8243,-2.8281,-2.827,-2.8277,-2.8284,-2.8393,-2.8413,-2.843,0,0,0,0,0,0,-2.8688,-2.8602,-2.856,-2.8588,-2.8554,-2.8482,-2.8505,-2.8452,-2.843,-2.842,-2.8337,-2.8324,-2.8347,-2.8316,-2.8281,-2.8331,-2.8266,-2.8272,-2.835,-2.8368,-2.8383,-2.8389,-2.8183,0,0,0,0,0,-2.8719,-2.8715,-2.864,-2.8673,-2.8658,-2.8585,-2.8577,-2.8527,-2.8489,-2.8474,-2.8426,-2.8392,-2.8379,-2.8372,-2.8357,-2.8396,-2.838,-2.842,-2.8435,-2.8448,-2.8454,-2.847,-2.8487,-2.8311,-2.8311,-2.8311,0,0,-2.8782,-2.8735,-2.8738,-2.8697,-2.8664,-2.8662,-2.8574,-2.8576,-2.8573,-2.8474,-2.8482,-2.8447,-2.8403,-2.8429,-2.8438,-2.8403,-2.8499,-2.8457,-2.8468,-2.8466,-2.8479,-2.8496,-2.8511,-2.8316,-2.8315,-2.8314,0,0,-2.8896,-2.8861,-2.8883,-2.8852,-2.8804,-2.8755,-2.8761,-2.8697,-2.8669,-2.8677,-2.8602,-2.8598,-2.8579,-2.8549,-2.8532,-2.8636,-2.8579,-2.8633,-2.8711,-2.8729,-2.8742,-2.8754,-2.8789,-2.8803,-2.864,-2.864,-2.864,0,-2.8981,-2.8974,-2.8901,-2.8907,-2.8891,-2.8801,-2.8822,-2.8796,-2.8746,-2.8737,-2.8699,-2.8671,-2.8636,-2.8652,-2.8678,-2.8668,-2.867,-2.8639,-2.8746,-2.8757,-2.8767,-2.88,-2.8813,-2.8647,-2.8646,-2.8645,-2.8645,0,-2.908,-2.9077,-2.9101,-2.9053,-2.904,-2.9054,-2.8983,-2.8978,-2.893,-2.8886,-2.8894,-2.8848,-2.882,-2.8821,-2.8775,-2.8832,-2.8811,-2.8762,-2.8694,-2.8792,-2.8821,-2.8833,-2.8657,-2.8654,-2.8652,-2.865,0,0,-2.9269,-2.918,-2.919,-2.9167,-2.9107,-2.9103,-2.9113,-2.9086,-2.9083,-2.9052,-2.9057,-2.9043,-2.8995,-2.8976,-2.8926,-2.8941,-2.9024,-2.8889,-2.8886,-2.8914,-2.9081,-2.9118,-2.9133,-2.8987,-2.8989,-2.899,-2.9084,0,-2.937,-2.938,-2.9315,-2.9343,-2.9338,-2.9253,-2.9261,-2.9226,-2.9185,-2.9175,-2.913,-2.912,-2.906,-2.9047,-2.9059,-2.9011,-2.9056,-2.9004,-2.899,-2.899,-2.9001,-2.9148,-2.9187,-2.9277,-2.9095,-2.9097,-2.9098,0,-2.9489,-2.9462,-2.949,-2.9428,-2.9423,-2.9432,-2.9401,-2.9393,-2.9351,-2.932,-2.9299,-2.9241,-2.9246,-2.9183,-2.9189,-2.9155,-2.9146,-2.9122,-2.9123,-2.9118,-2.9049,-2.9145,-2.9305,-2.9318,-2.9116,-2.9114,-2.9113,0,-2.9621,-2.9593,-2.9605,-2.9588,-2.9517,-2.9524,-2.9495,-2.945,-2.9437,-2.9411,-2.9401,-2.9377,-2.9363,-2.9345,-2.9281,-2.9242,-2.9294,-2.9226,-2.9267,-2.9269,-2.928,-2.928,-2.9439,-2.9279,-2.9278,-2.9278,-2.9278,0,-2.9739,-2.9759,-2.9663,-2.9671,-2.969,-2.9615,-2.9636,-2.9599,-2.9559,-2.9558,-2.9484,-2.9484,-2.9402,-2.9393,-2.9344,-2.9355,-2.935,-2.9324,-2.9311,-2.9329,-2.9333,-2.9321,-2.9312,-2.9282,-2.9281,-2.928,-2.928,0,-2.9889,-2.9826,-2.9833,-2.9765,-2.9748,-2.9765,-2.9706,-2.971,-2.9665,-2.9664,-2.966,-2.9588,-2.9574,-2.9509,-2.9481,-2.9447,-2.9474,-2.9449,-2.9488,-2.9479,-2.9522,-2.9519,-2.9678,-2.9694,-2.9526,-2.9528,-2.9529,0,-2.9967,-2.998,-2.9913,-2.9906,-2.9879,-2.987,-2.9856,-2.9783,-2.9772,-2.9725,-2.9735,-2.9715,-2.9694,-2.9675,-2.9621,-2.9598,-2.957,-2.9628,-2.9566,-2.9584,-2.9568,-2.9567,-2.9568,-2.964,-2.9642,-2.9644,-2.9646,0,-3.0113,-3.008,-3.0063,-3.0035,-3.0021,-2.9996,-2.9966,-2.9965,-2.9883,-2.9875,-2.9859,-2.9843,-2.9813,-2.9793,-2.9761,-2.9731,-2.9675,-2.9666,-2.9673,-2.9692,-2.9713,-2.97,-2.9522,-2.9662,-2.966,-2.9659,-2.9658,-2.9658,-3.0227,-3.0234,-3.0187,-3.017,-3.014,-3.0114,-3.0114,-3.0068,-3.0053,-3.0022,-2.998,-2.9969,-2.9926,-2.9877,-2.9852,-2.9842,-2.9811,-2.9823,-2.9825,-2.9829,-2.9837,-2.9717,-2.9837,-2.9836,-2.9835,-2.9835,-2.9835,0,-3.0367,-3.0332,-3.0318,-3.0277,-3.0264,-3.0213,-3.0177,-3.0169,-3.016,-3.0125,-3.0106,-3.0087,-3.0068,-3.0012,-2.9987,-2.999,-2.9964,-2.9986,-2.9984,-2.9978,-2.9868,-2.9863,-3.0008,-3.0008,-3.0008,-3.0008,-3.0008,-3.0008,-3.0437,-3.0446,-3.0408,-3.0401,-3.0366,-3.0354,-3.0338,-3.0313,-3.0284,-3.0266,-3.0249,-3.0213,-3.0169,-3.014,-3.012,-3.0104,-3.0098,-3.0128,-3.0104,-3.0002,-2.9986,-2.997,-2.9964,-3.0128,-3.0128,-3.0213,-3.0214,-3.0215]},{"header":{"parameterUnit":"m.s-1","parameterCategory":1,"la1":30.2991,"la2":30.254,"lo1":-89.0895,"lo2":-89.0444,"dy":0.0017,"dx":0.0017,"nx":28,"ny":28,"refTime":"2023-09-21T21:00:00:Z","depth":0,"parameterNumber":3,"parameterNumberName":"V-component_of_WINDS"},"data":[0,0,0,0,0,0,0,0,0,0,0,0,0,0,0,0,0,0,0,0,0,0,0,0,0,0,0,0,0,0,0,0,0,0,0,0,0,0,0,0,0,0,0,0,0,0,0,0,0,0,0,0,0,0,0,0,0,0,0.2126,0.2125,0,0.2017,0.2016,0.2015,0.2005,0.2006,0.2007,0.2008,0.1893,0.1889,0.1885,0,0,0,0,0,0,0,0,0,0,0,0,0,0.2322,0.2318,0.2126,0.2125,0.2124,0.2018,0.2016,0.2014,0.2005,0.2006,0.2008,0.2009,0.1895,0.189,0.1885,0,0,0,0,0,0,0,0,0,0,0,0,0,0.2227,0.2317,0.2127,0.2106,0.2103,0.2018,0.2016,0.2014,0.2004,0.2006,0.2008,0.201,0.1896,0.189,0.1884,0.181,0,0,0.1865,0.1862,0,0,0,0,0,0,0,0,0.2233,0.222,0.211,0.2107,0.2104,0.2027,0.2043,0.1946,0.2004,0.2042,0.2008,0.2011,0.1936,0.1927,0.1902,0.1805,0.18,0.1864,0.1861,0.1858,0.1856,0,0,0,0,0,0,0,0.2239,0.2225,0.2083,0.2109,0.2105,0.2101,0.2089,0.2024,0.198,0.2039,0.2038,0.2025,0.1934,0.1908,0.1899,0.1798,0.1865,0.1859,0.1855,0.1853,0.1633,0.1631,0,0,0,0,0,0,0.225,0.223,0.2087,0.208,0.2174,0.2096,0.2083,0.205,0.1981,0.1972,0.2024,0.2025,0.1918,0.1907,0.1895,0.1802,0.1858,0.1852,0.1849,0.1635,0.1633,0.163,0,0,0,0,0,0,0.2255,0.2238,0.2091,0.2155,0.2136,0.2091,0.2053,0.2047,0.202,0.197,0.1962,0.2005,0.1919,0.1904,0.1831,0.1798,0.1849,0.1844,0.1638,0.1634,0.1631,0.1618,0,0,0,0,0,0,0.226,0.2239,0.2212,0.2154,0.2133,0.203,0.2051,0.2043,0.201,0.2011,0.195,0.1942,0.1919,0.1841,0.1825,0.1791,0.1839,0.164,0.1636,0.1632,0.1621,0.1615,0.1609,0,0,0,0,0,0.2267,0.2212,0.221,0.2193,0.2097,0.2028,0.2016,0.1992,0.2007,0.1978,0.1946,0.1944,0.1805,0.1833,0.1816,0.1779,0.1642,0.1637,0.1633,0.1624,0.1616,0.1609,0,0,0,0,0,0,0.2266,0.2204,0.2202,0.2127,0.2083,0.2027,0.199,0.1985,0.1934,0.1937,0.1909,0.1895,0.1823,0.1794,0.1826,0.1703,0.1725,0.1717,0.1724,0.1716,0.1711,0.1718,0.1834,0,0,0,0,0,0.2257,0.2207,0.2156,0.2094,0.2072,0.2035,0.2004,0.1989,0.1942,0.1923,0.1885,0.1839,0.1785,0.1749,0.1697,0.1618,0.1603,0.1584,0.1578,0.1573,0.1565,0.1519,0.1509,0.1615,0.1615,0.1615,0,0,0.2237,0.2198,0.2168,0.2093,0.2057,0.2004,0.2019,0.1963,0.1923,0.1914,0.1843,0.1814,0.176,0.1683,0.1647,0.1657,0.1533,0.1567,0.1564,0.1558,0.1513,0.1503,0.1494,0.1612,0.1612,0.1613,0,0,0.2175,0.2141,0.2085,0.2049,0.1995,0.1971,0.1957,0.1902,0.1882,0.181,0.1802,0.1754,0.1662,0.1623,0.1591,0.1513,0.1508,0.1497,0.1465,0.142,0.1412,0.1404,0.1374,0.1364,0.149,0.149,0.149,0,0.2157,0.2078,0.2056,0.2,0.1966,0.1957,0.1899,0.1865,0.1796,0.1772,0.1785,0.1668,0.1631,0.1544,0.1525,0.15,0.1482,0.1502,0.1415,0.1407,0.14,0.137,0.1359,0.1489,0.1489,0.1489,0.1489,0,0.2058,0.2003,0.1965,0.1899,0.1861,0.1804,0.1772,0.1736,0.1725,0.1699,0.1625,0.1581,0.1518,0.1497,0.1485,0.1407,0.1414,0.1421,0.1442,0.1389,0.1361,0.1349,0.1487,0.1487,0.1488,0.1488,0,0,0.1989,0.1913,0.1899,0.1868,0.1808,0.1765,0.1707,0.1647,0.1615,0.1569,0.1517,0.144,0.1445,0.1409,0.1393,0.1354,0.1292,0.1366,0.1364,0.1351,0.12,0.1194,0.1181,0.129,0.1288,0.1286,0.1204,0,0.1918,0.1816,0.1794,0.1705,0.1653,0.1643,0.1593,0.1549,0.1523,0.1474,0.1445,0.1389,0.1403,0.138,0.1342,0.1308,0.1261,0.1314,0.1239,0.1237,0.1251,0.1167,0.116,0.1084,0.1193,0.1191,0.119,0,0.182,0.1771,0.1677,0.1623,0.16,0.1555,0.1497,0.1452,0.1402,0.1385,0.1345,0.1333,0.1271,0.1297,0.1209,0.1245,0.1214,0.1193,0.1189,0.1179,0.1208,0.1152,0.106,0.1048,0.1173,0.1174,0.1176,0,0.1776,0.1688,0.1619,0.1594,0.1529,0.1497,0.1469,0.1421,0.1385,0.1335,0.1311,0.1254,0.1222,0.1177,0.1149,0.1171,0.1062,0.1086,0.1044,0.1045,0.102,0.1021,0.0919,0.1004,0.1004,0.1005,0.1005,0,0.1697,0.1639,0.1598,0.1556,0.149,0.1466,0.1401,0.1372,0.1329,0.128,0.1269,0.1222,0.119,0.1138,0.1116,0.1045,0.1032,0.1015,0.1009,0.1014,0.1016,0.0991,0.0994,0.1002,0.1002,0.1003,0.1003,0,0.1636,0.1607,0.1531,0.1477,0.1461,0.1415,0.1367,0.1325,0.1299,0.1236,0.122,0.1179,0.1118,0.1086,0.101,0.0995,0.0914,0.0913,0.0931,0.0928,0.0886,0.089,0.0762,0.0743,0.0844,0.0843,0.0842,0,0.1586,0.1541,0.1482,0.1448,0.1419,0.1366,0.133,0.1304,0.1266,0.1206,0.117,0.1109,0.1057,0.096,0.0922,0.0863,0.0858,0.0818,0.0849,0.0855,0.0854,0.0856,0.085,0.0811,0.081,0.0809,0.0809,0,0.1499,0.1487,0.1436,0.1379,0.1337,0.1291,0.1246,0.1219,0.1185,0.1143,0.1081,0.1042,0.0964,0.0901,0.084,0.0808,0.0801,0.08,0.0786,0.0789,0.08,0.0791,0.0912,0.0802,0.0803,0.0803,0.0804,0.0804,0.1439,0.1398,0.135,0.1293,0.1257,0.1214,0.1171,0.114,0.1088,0.1023,0.1011,0.0944,0.0894,0.081,0.0777,0.0724,0.0732,0.0713,0.0708,0.0703,0.0699,0.0812,0.0713,0.0713,0.0713,0.0713,0.0713,0,0.1349,0.1318,0.1266,0.1203,0.1158,0.1159,0.1108,0.107,0.1011,0.0966,0.0916,0.0843,0.0783,0.0741,0.0679,0.0644,0.0639,0.0628,0.0629,0.0621,0.0697,0.0713,0.0633,0.0633,0.0633,0.0633,0.0633,0.0633,0.1297,0.1227,0.1209,0.112,0.1089,0.1024,0.0994,0.0955,0.0918,0.0838,0.0788,0.0761,0.0716,0.0651,0.0595,0.0584,0.056,0.0549,0.0537,0.0608,0.0616,0.0624,0.0639,0.0545,0.0545,0.0466,0.0465,0.0465]}]]